Time,TemperatureF,DewpointF,PressureIn,WindDirection,WindDirectionDegrees,WindSpeedMPH,WindSpeedGustMPH,Humidity,HourlyPrecipIn,Conditions,Clouds,dailyrainin,SoftwareType,DateUTC
2013-02-19 00:02:00,30.0,22.0,30.18,North,360,7.0,-999.0,71,-99.99,,,-99.99,,2013-02-19 05:02:00,
2013-02-19 00:13:00,30.0,22.0,30.18,North,360,7.0,-999.0,71,-99.99,,,-99.99,,2013-02-19 05:13:00,
2013-02-19 00:22:00,29.0,21.0,30.18,North,360,8.0,-999.0,72,-99.99,,,-99.99,,2013-02-19 05:22:00,
2013-02-19 00:32:00,29.0,21.0,30.16,North,360,8.0,-999.0,72,-99.99,,,-99.99,,2013-02-19 05:32:00,
2013-02-19 00:43:00,29.0,21.0,30.16,North,360,8.0,-999.0,72,-99.99,,,-99.99,,2013-02-19 05:43:00,
2013-02-19 00:52:00,30.0,22.0,30.16,North,360,8.0,-999.0,71,-99.99,,,-99.99,,2013-02-19 05:52:00,
2013-02-19 01:03:00,30.0,22.0,30.16,North,360,9.0,-999.0,71,-99.99,,,-99.99,,2013-02-19 06:03:00,
2013-02-19 01:12:00,30.0,22.0,30.16,North,360,9.0,-999.0,71,-99.99,,,-99.99,,2013-02-19 06:12:00,
2013-02-19 01:22:00,29.0,20.0,30.14,North,360,8.0,-999.0,70,-99.99,,,-99.99,,2013-02-19 06:22:00,
2013-02-19 01:32:00,30.0,21.0,30.13,North,360,6.0,-999.0,68,-99.99,,,-99.99,,2013-02-19 06:32:00,
2013-02-19 01:42:00,30.0,21.0,30.13,North,360,6.0,-999.0,68,-99.99,,,-99.99,,2013-02-19 06:42:00,
2013-02-19 01:52:00,30.0,21.0,30.13,North,360,6.0,-999.0,68,-99.99,,,-99.99,,2013-02-19 06:52:00,
2013-02-19 02:02:00,30.0,21.0,30.09,North,360,9.0,-999.0,68,-99.99,,,-99.99,,2013-02-19 07:02:00,
2013-02-19 02:12:00,30.0,21.0,30.09,North,360,9.0,-999.0,68,-99.99,,,-99.99,,2013-02-19 07:12:00,
2013-02-19 02:22:00,30.0,21.0,30.09,North,360,12.0,-999.0,68,-99.99,,,-99.99,,2013-02-19 07:22:00,
2013-02-19 02:32:00,30.0,21.0,30.08,North,360,10.0,-999.0,69,-99.99,,,-99.99,,2013-02-19 07:32:00,
2013-02-19 02:42:00,30.0,21.0,30.08,North,360,10.0,-999.0,69,-99.99,,,-99.99,,2013-02-19 07:42:00,
2013-02-19 02:52:00,29.0,20.0,30.08,North,360,12.0,-999.0,70,-99.99,,,-99.99,,2013-02-19 07:52:00,
2013-02-19 03:02:00,29.0,20.0,30.08,North,360,11.0,-999.0,70,-99.99,,,-99.99,,2013-02-19 08:02:00,
2013-02-19 03:11:00,29.0,20.0,30.08,North,360,11.0,-999.0,70,-99.99,,,-99.99,,2013-02-19 08:11:00,
2013-02-19 03:22:00,29.0,20.0,30.07,North,360,10.0,-999.0,70,-99.99,,,-99.99,,2013-02-19 08:22:00,
2013-02-19 03:32:00,30.0,21.0,30.10,North,360,13.0,-999.0,68,-99.99,,,-99.99,,2013-02-19 08:32:00,
2013-02-19 03:42:00,30.0,21.0,30.10,North,360,13.0,-999.0,68,-99.99,,,-99.99,,2013-02-19 08:42:00,
2013-02-19 03:52:00,30.0,21.0,30.08,North,360,9.0,-999.0,69,-99.99,,,-99.99,,2013-02-19 08:52:00,
2013-02-19 04:02:00,30.0,22.0,30.07,North,360,10.0,-999.0,72,-99.99,,,-99.99,,2013-02-19 09:02:00,
2013-02-19 04:11:00,30.0,22.0,30.07,North,360,10.0,-999.0,72,-99.99,,,-99.99,,2013-02-19 09:11:00,
2013-02-19 04:22:00,30.0,22.0,30.06,North,360,9.0,-999.0,73,-99.99,,,-99.99,,2013-02-19 09:22:00,
2013-02-19 04:32:00,29.0,22.0,30.08,North,360,9.0,-999.0,74,-99.99,,,-99.99,,2013-02-19 09:32:00,
2013-02-19 04:42:00,29.0,22.0,30.08,North,360,9.0,-999.0,74,-99.99,,,-99.99,,2013-02-19 09:42:00,
2013-02-19 04:52:00,30.0,23.0,30.08,North,360,12.0,-999.0,74,-99.99,,,-99.99,,2013-02-19 09:52:00,
2013-02-19 05:02:00,31.0,26.0,30.08,North,360,12.0,-999.0,80,-99.99,,,-99.99,,2013-02-19 10:02:00,
2013-02-19 05:11:00,31.0,26.0,30.08,North,360,12.0,-999.0,80,-99.99,,,-99.99,,2013-02-19 10:11:00,
2013-02-19 05:22:00,29.0,27.0,30.09,North,360,13.0,-999.0,91,-99.99,,,-99.99,,2013-02-19 10:22:00,
2013-02-19 05:32:00,28.0,26.0,30.08,North,360,9.0,-999.0,93,-99.99,,,-99.99,,2013-02-19 10:32:00,
2013-02-19 05:42:00,28.0,26.0,30.08,North,360,9.0,-999.0,93,-99.99,,,-99.99,,2013-02-19 10:42:00,
2013-02-19 05:52:00,29.0,27.0,30.09,North,360,10.0,-999.0,94,-99.99,,,-99.99,,2013-02-19 10:52:00,
2013-02-19 06:01:00,29.0,28.0,30.09,North,360,10.0,-999.0,95,-99.99,,,-99.99,,2013-02-19 11:01:00,
2013-02-19 06:11:00,29.0,28.0,30.09,North,360,10.0,-999.0,95,-99.99,,,-99.99,,2013-02-19 11:11:00,
2013-02-19 06:22:00,29.0,28.0,30.08,North,360,8.0,-999.0,95,-99.99,,,-99.99,,2013-02-19 11:22:00,
2013-02-19 06:32:00,29.0,28.0,30.09,North,360,6.0,-999.0,95,-99.99,,,-99.99,,2013-02-19 11:32:00,
2013-02-19 06:42:00,29.0,28.0,30.09,North,360,6.0,-999.0,95,-99.99,,,-99.99,,2013-02-19 11:42:00,
2013-02-19 06:52:00,29.0,28.0,30.08,North,360,6.0,-999.0,95,-99.99,,,-99.99,,2013-02-19 11:52:00,
2013-02-19 07:02:00,29.0,28.0,30.08,North,360,7.0,-999.0,95,-99.99,,,-99.99,,2013-02-19 12:02:00,
2013-02-19 07:12:00,29.0,28.0,30.08,North,360,7.0,-999.0,95,-99.99,,,-99.99,,2013-02-19 12:12:00,
2013-02-19 07:22:00,29.0,28.0,30.07,North,360,7.0,-999.0,95,-99.99,,,-99.99,,2013-02-19 12:22:00,
2013-02-19 07:32:00,30.0,29.0,30.07,North,360,8.0,-999.0,96,-99.99,,,-99.99,,2013-02-19 12:32:00,
2013-02-19 07:42:00,30.0,29.0,30.07,North,360,8.0,-999.0,96,-99.99,,,-99.99,,2013-02-19 12:42:00,
2013-02-19 07:52:00,30.0,29.0,30.06,North,360,7.0,-999.0,96,-99.99,,,-99.99,,2013-02-19 12:52:00,
2013-02-19 08:02:00,31.0,30.0,30.05,North,360,7.0,-999.0,96,-99.99,,,-99.99,,2013-02-19 13:02:00,
2013-02-19 08:11:00,31.0,30.0,30.05,North,360,7.0,-999.0,96,-99.99,,,-99.99,,2013-02-19 13:11:00,
2013-02-19 08:22:00,31.0,30.0,30.03,North,360,6.0,-999.0,96,-99.99,,,-99.99,,2013-02-19 13:22:00,
2013-02-19 08:32:00,31.0,30.0,30.05,North,360,5.0,-999.0,96,-99.99,,,-99.99,,2013-02-19 13:32:00,
2013-02-19 08:42:00,31.0,30.0,30.05,North,360,5.0,-999.0,96,-99.99,,,-99.99,,2013-02-19 13:42:00,
2013-02-19 08:52:00,31.0,30.0,30.05,North,360,7.0,-999.0,96,-99.99,,,-99.99,,2013-02-19 13:52:00,
2013-02-19 09:02:00,31.0,30.0,30.05,North,360,2.0,-999.0,96,-99.99,,,-99.99,,2013-02-19 14:02:00,
2013-02-19 09:12:00,31.0,30.0,30.05,North,360,2.0,-999.0,96,-99.99,,,-99.99,,2013-02-19 14:12:00,
2013-02-19 09:22:00,32.0,31.0,30.05,North,360,2.0,-999.0,97,-99.99,,,-99.99,,2013-02-19 14:22:00,
2013-02-19 09:33:00,32.0,31.0,30.05,North,360,5.0,-999.0,97,-99.99,,,-99.99,,2013-02-19 14:33:00,
2013-02-19 09:42:00,32.0,31.0,30.05,North,360,5.0,-999.0,97,-99.99,,,-99.99,,2013-02-19 14:42:00,
2013-02-19 09:52:00,31.0,30.0,30.05,North,360,5.0,-999.0,97,-99.99,,,-99.99,,2013-02-19 14:52:00,
2013-02-19 10:02:00,31.0,30.0,30.04,North,360,2.0,-999.0,97,-99.99,,,-99.99,,2013-02-19 15:02:00,
2013-02-19 10:11:00,31.0,30.0,30.04,North,360,2.0,-999.0,97,-99.99,,,-99.99,,2013-02-19 15:11:00,
2013-02-19 10:22:00,32.0,31.0,30.04,North,360,1.0,-999.0,97,-99.99,,,-99.99,,2013-02-19 15:22:00,
2013-02-19 10:32:00,32.0,31.0,30.04,North,360,3.0,-999.0,97,-99.99,,,-99.99,,2013-02-19 15:32:00,
2013-02-19 10:42:00,32.0,31.0,30.04,North,360,3.0,-999.0,97,-99.99,,,-99.99,,2013-02-19 15:42:00,
2013-02-19 10:52:00,32.0,31.0,30.03,North,360,2.0,-999.0,97,-99.99,,,-99.99,,2013-02-19 15:52:00,
2013-02-19 11:02:00,32.0,31.0,30.04,North,360,3.0,-999.0,97,-99.99,,,-99.99,,2013-02-19 16:02:00,
2013-02-19 11:11:00,32.0,31.0,30.04,North,360,3.0,-999.0,97,-99.99,,,-99.99,,2013-02-19 16:11:00,
2013-02-19 11:22:00,33.0,32.0,30.03,North,360,1.0,-999.0,97,-99.99,,,-99.99,,2013-02-19 16:22:00,
2013-02-19 11:32:00,33.0,32.0,30.03,North,360,1.0,-999.0,97,-99.99,,,-99.99,,2013-02-19 16:32:00,
2013-02-19 11:42:00,33.0,32.0,30.03,North,360,1.0,-999.0,97,-99.99,,,-99.99,,2013-02-19 16:42:00,
2013-02-19 11:52:00,34.0,33.0,30.03,North,360,1.0,-999.0,97,-99.99,,,-99.99,,2013-02-19 16:52:00,
2013-02-19 12:01:00,34.0,33.0,30.02,North,360,3.0,-999.0,97,-99.99,,,-99.99,,2013-02-19 17:01:00,
2013-02-19 12:11:00,34.0,33.0,30.02,North,360,3.0,-999.0,97,-99.99,,,-99.99,,2013-02-19 17:11:00,
2013-02-19 12:21:00,35.0,34.0,30.02,North,360,4.0,-999.0,97,-99.99,,,-99.99,,2013-02-19 17:21:00,
2013-02-19 12:32:00,35.0,34.0,30.02,North,360,2.0,-999.0,97,-99.99,,,-99.99,,2013-02-19 17:32:00,
2013-02-19 12:42:00,35.0,34.0,30.02,North,360,2.0,-999.0,97,-99.99,,,-99.99,,2013-02-19 17:42:00,
2013-02-19 12:52:00,35.0,34.0,30.00,North,360,5.0,-999.0,97,-99.99,,,-99.99,,2013-02-19 17:52:00,
2013-02-19 13:02:00,36.0,35.0,29.99,North,360,5.0,-999.0,97,-99.99,,,-99.99,,2013-02-19 18:02:00,
2013-02-19 13:11:00,36.0,35.0,29.99,North,360,5.0,-999.0,97,-99.99,,,-99.99,,2013-02-19 18:11:00,
2013-02-19 13:21:00,36.0,35.0,29.98,North,360,5.0,-999.0,97,-99.99,,,-99.99,,2013-02-19 18:21:00,
2013-02-19 13:32:00,36.0,35.0,29.98,North,360,6.0,-999.0,97,-99.99,,,-99.99,,2013-02-19 18:32:00,
2013-02-19 13:42:00,35.0,34.0,29.98,North,360,6.0,-999.0,97,-99.99,,,-99.99,,2013-02-19 18:42:00,
2013-02-19 13:52:00,35.0,34.0,29.98,North,360,6.0,-999.0,97,-99.99,,,-99.99,,2013-02-19 18:52:00,
2013-02-19 14:01:00,36.0,35.0,29.97,North,360,5.0,-999.0,97,-99.99,,,-99.99,,2013-02-19 19:01:00,
2013-02-19 14:11:00,36.0,35.0,29.97,North,360,5.0,-999.0,97,-99.99,,,-99.99,,2013-02-19 19:11:00,
2013-02-19 14:21:00,36.0,35.0,29.95,North,360,6.0,-999.0,97,-99.99,,,-99.99,,2013-02-19 19:21:00,
2013-02-19 14:32:00,36.0,35.0,29.96,North,360,6.0,-999.0,97,-99.99,,,-99.99,,2013-02-19 19:32:00,
2013-02-19 14:42:00,36.0,35.0,29.96,North,360,6.0,-999.0,97,-99.99,,,-99.99,,2013-02-19 19:42:00,
2013-02-19 14:51:00,37.0,36.0,29.96,North,360,6.0,-999.0,97,-99.99,,,-99.99,,2013-02-19 19:51:00,
2013-02-19 15:02:00,37.0,36.0,29.96,North,360,7.0,-999.0,95,-99.99,,,-99.99,,2013-02-19 20:02:00,
2013-02-19 15:12:00,37.0,36.0,29.96,North,360,7.0,-999.0,95,-99.99,,,-99.99,,2013-02-19 20:12:00,
2013-02-19 15:22:00,37.0,31.0,29.95,North,360,9.0,-999.0,78,-99.99,,,-99.99,,2013-02-19 20:22:00,
2013-02-19 15:32:00,38.0,29.0,29.96,North,360,7.0,-999.0,69,-99.99,,,-99.99,,2013-02-19 20:32:00,
2013-02-19 15:42:00,38.0,29.0,29.96,North,360,7.0,-999.0,69,-99.99,,,-99.99,,2013-02-19 20:42:00,
2013-02-19 15:52:00,38.0,27.0,29.96,North,360,9.0,-999.0,64,-99.99,,,-99.99,,2013-02-19 20:52:00,
2013-02-19 16:02:00,38.0,27.0,29.96,North,360,6.0,-999.0,64,-99.99,,,-99.99,,2013-02-19 21:02:00,
2013-02-19 16:11:00,38.0,27.0,29.96,North,360,6.0,-999.0,64,-99.99,,,-99.99,,2013-02-19 21:11:00,
2013-02-19 16:21:00,40.0,29.0,29.95,North,360,6.0,-999.0,65,-99.99,,,-99.99,,2013-02-19 21:21:00,
2013-02-19 16:32:00,40.0,28.0,29.96,North,360,6.0,-999.0,61,-99.99,,,-99.99,,2013-02-19 21:32:00,
2013-02-19 16:42:00,40.0,28.0,29.96,North,360,6.0,-999.0,61,-99.99,,,-99.99,,2013-02-19 21:42:00,
2013-02-19 16:51:00,40.0,27.0,29.96,North,360,6.0,-999.0,59,-99.99,,,-99.99,,2013-02-19 21:51:00,
2013-02-19 17:02:00,39.0,23.0,29.96,North,360,9.0,-999.0,53,-99.99,,,-99.99,,2013-02-19 22:02:00,
2013-02-19 17:11:00,39.0,23.0,29.96,North,360,9.0,-999.0,53,-99.99,,,-99.99,,2013-02-19 22:11:00,
2013-02-19 17:21:00,37.0,21.0,29.97,North,360,11.0,-999.0,53,-99.99,,,-99.99,,2013-02-19 22:21:00,
2013-02-19 17:32:00,37.0,22.0,29.98,North,360,10.0,-999.0,54,-99.99,,,-99.99,,2013-02-19 22:32:00,
2013-02-19 17:42:00,37.0,22.0,29.98,North,360,10.0,-999.0,54,-99.99,,,-99.99,,2013-02-19 22:42:00,
2013-02-19 17:52:00,37.0,23.0,29.98,North,360,9.0,-999.0,56,-99.99,,,-99.99,,2013-02-19 22:52:00,
2013-02-19 18:01:00,37.0,23.0,29.99,North,360,9.0,-999.0,56,-99.99,,,-99.99,,2013-02-19 23:01:00,
2013-02-19 18:11:00,37.0,23.0,29.99,North,360,9.0,-999.0,56,-99.99,,,-99.99,,2013-02-19 23:11:00,
2013-02-19 18:21:00,36.0,21.0,29.99,North,360,8.0,-999.0,55,-99.99,,,-99.99,,2013-02-19 23:21:00,
2013-02-19 18:32:00,35.0,21.0,29.99,North,360,8.0,-999.0,56,-99.99,,,-99.99,,2013-02-19 23:32:00,
2013-02-19 18:42:00,35.0,21.0,29.99,North,360,8.0,-999.0,56,-99.99,,,-99.99,,2013-02-19 23:42:00,
2013-02-19 18:52:00,34.0,20.0,30.01,North,360,8.0,-999.0,57,-99.99,,,-99.99,,2013-02-19 23:52:00,
2013-02-19 19:02:00,34.0,20.0,30.01,North,360,8.0,-999.0,57,-99.99,,,-99.99,,2013-02-20 00:02:00,
2013-02-19 19:11:00,34.0,20.0,30.01,North,360,8.0,-999.0,57,-99.99,,,-99.99,,2013-02-20 00:11:00,
2013-02-19 19:21:00,33.0,19.0,30.02,North,360,7.0,-999.0,56,-99.99,,,-99.99,,2013-02-20 00:21:00,
2013-02-19 19:32:00,33.0,16.0,30.02,North,360,7.0,-999.0,50,-99.99,,,-99.99,,2013-02-20 00:32:00,
2013-02-19 19:42:00,33.0,16.0,30.02,North,360,7.0,-999.0,50,-99.99,,,-99.99,,2013-02-20 00:42:00,
2013-02-19 19:52:00,33.0,16.0,30.02,North,360,7.0,-999.0,50,-99.99,,,-99.99,,2013-02-20 00:52:00,
2013-02-19 20:02:00,31.0,13.0,30.02,North,360,8.0,-999.0,47,-99.99,,,-99.99,,2013-02-20 01:02:00,
2013-02-19 20:11:00,31.0,13.0,30.02,North,360,8.0,-999.0,47,-99.99,,,-99.99,,2013-02-20 01:11:00,
2013-02-19 20:22:00,31.0,14.0,30.03,North,360,10.0,-999.0,48,-99.99,,,-99.99,,2013-02-20 01:22:00,
2013-02-19 20:32:00,30.0,13.0,30.03,North,360,10.0,-999.0,49,-99.99,,,-99.99,,2013-02-20 01:32:00,
2013-02-19 20:42:00,30.0,13.0,30.03,North,360,10.0,-999.0,49,-99.99,,,-99.99,,2013-02-20 01:42:00,
2013-02-19 20:52:00,30.0,14.0,30.03,North,360,9.0,-999.0,51,-99.99,,,-99.99,,2013-02-20 01:52:00,
2013-02-19 21:02:00,30.0,14.0,30.03,North,360,8.0,-999.0,51,-99.99,,,-99.99,,2013-02-20 02:02:00,
2013-02-19 21:11:00,30.0,14.0,30.03,North,360,8.0,-999.0,51,-99.99,,,-99.99,,2013-02-20 02:11:00,
2013-02-19 21:21:00,29.0,14.0,30.03,North,360,8.0,-999.0,52,-99.99,,,-99.99,,2013-02-20 02:21:00,
2013-02-19 21:32:00,29.0,14.0,30.05,North,360,8.0,-999.0,52,-99.99,,,-99.99,,2013-02-20 02:32:00,
2013-02-19 21:42:00,29.0,14.0,30.05,North,360,8.0,-999.0,52,-99.99,,,-99.99,,2013-02-20 02:42:00,
2013-02-19 21:52:00,28.0,13.0,30.05,North,360,6.0,-999.0,52,-99.99,,,-99.99,,2013-02-20 02:52:00,
2013-02-19 22:02:00,28.0,14.0,30.05,North,360,8.0,-999.0,54,-99.99,,,-99.99,,2013-02-20 03:02:00,
2013-02-19 22:12:00,28.0,14.0,30.05,North,360,8.0,-999.0,54,-99.99,,,-99.99,,2013-02-20 03:12:00,
2013-02-19 22:22:00,28.0,14.0,30.05,North,360,8.0,-999.0,55,-99.99,,,-99.99,,2013-02-20 03:22:00,
2013-02-19 22:32:00,27.0,14.0,30.05,North,360,7.0,-999.0,57,-99.99,,,-99.99,,2013-02-20 03:32:00,
2013-02-19 22:42:00,27.0,14.0,30.05,North,360,7.0,-999.0,57,-99.99,,,-99.99,,2013-02-20 03:42:00,
2013-02-19 22:52:00,27.0,14.0,30.05,North,360,9.0,-999.0,57,-99.99,,,-99.99,,2013-02-20 03:52:00,
2013-02-19 23:01:00,27.0,13.0,30.04,North,360,9.0,-999.0,56,-99.99,,,-99.99,,2013-02-20 04:01:00,
2013-02-19 23:11:00,27.0,13.0,30.04,North,360,9.0,-999.0,56,-99.99,,,-99.99,,2013-02-20 04:11:00,
2013-02-19 23:21:00,26.0,12.0,30.04,North,360,8.0,-999.0,56,-99.99,,,-99.99,,2013-02-20 04:21:00,
2013-02-19 23:32:00,26.0,12.0,30.04,North,360,8.0,-999.0,56,-99.99,,,-99.99,,2013-02-20 04:32:00,
2013-02-19 23:42:00,26.0,12.0,30.04,North,360,8.0,-999.0,56,-99.99,,,-99.99,,2013-02-20 04:42:00,
2013-02-19 23:52:00,26.0,13.0,30.04,North,360,9.0,-999.0,57,-99.99,,,-99.99,,2013-02-20 04:52:00,